Powrót do katalogu

O3B FM9

AktywnyŁącznośćMEO
NORAD 40351·PAYLOAD·🇱🇺 Luxembourg

Wystrzelony Dec 18, 2014 z Guiana Space Centre

Loading…

Następne Przeloty (najbliższe 24 godziny)

TLE

ŚwieżeSource: CelesTrak SupGP

Epoka: Sep 13, 2026, 15:00 UTC

1 40351C 14083D   26256.62500000  .00000000  00000+0  00000+0 0  2567
2 40351   0.0543 347.2590 0002614 183.0698 275.3699  5.00116176    14

Śledź O3B FM9 w czasie rzeczywistym z AllMySat

Download on the App Store